Regional Weather Roundup
Issued by NWS Newport/Morehead, NC

Current Version | Previous Version | Graphics & Text | Print | Product List | Glossary Off
Versions: 1 2 3 4 5 6 7 8 9 10 11 12 13 14 15 16 17 18 19 20 21 22 23 24 25 26 27 28 29 30 31 32 33 34 35 36 37 38 39 40 41 42 43 44 45 46 47 48 49 50

000
ASUS42 KMHX 281424
RWRMHX
WEATHER ROUNDUP FOR EASTERN NORTH CAROLINA
NATIONAL WEATHER SERVICE NEWPORT/MOREHEAD CITY NC
1000 AM EDT FRI JUL 28 2017

NOTE: "FAIR" INDICATES FEW OR NO CLOUDS BELOW 12,000 FEET
WITH NO SIGNIFICANT WEATHER AND/OR OBSTRUCTIONS TO VISIBILITY

NCZ015>017-031-032-045>047-102-103-281500-
NORTH COAST

CITY           SKY/WX    TMP DP  RH WIND       PRES   REMARKS
EDENTON        LGT RAIN  78  75  91 CALM      29.87F
ELIZABETH CITY CLOUDY    76  75  97 E9        29.88S
KITTY HAWK     HVY RAIN  71  71 100 CALM      29.91R VSB 1
MANTEO         RAIN      73  71  96 E6        29.92R

$$

NCZ045>047-081-094-103-104-281500-
CENTRAL COAST

CITY           SKY/WX    TMP DP  RH WIND       PRES   REMARKS
FRISCO         CLOUDY    82  76  81 W9        29.90S

$$

NCZ095-097-098-100-101-281500-
SOUTHERN COAST

CITY           SKY/WX    TMP DP  RH WIND       PRES   REMARKS
BEAUFORT       CLOUDY    82  77  84 W9        29.89F
CEDAR ISLAND   NOT AVBL
JACKSONVILLE   CLOUDY    84  77  79 W7        29.89S
PINEY ISLAND   CLOUDY   N/A N/A N/A W9        29.89F
WILMINGTON     CLOUDY    81  76  84 SW7       29.89F


$$

NCZ011>013-027>030-043-044-078>080-089-090>093-098-281500-
COASTAL PLAIN

CITY           SKY/WX    TMP DP  RH WIND       PRES   REMARKS
AHOSKIE          N/A     76  75  98 S3        29.85F
CLINTON        CLOUDY    83  75  79 W10       29.89F
ELIZABETHTOWN  NOT AVBL
GOLDSBORO      CLOUDY    81  78  89 SW7       29.87S
GREENVILLE     PTSUNNY   81  73  78 SW8       29.89F
HAVELOCK       CLOUDY    80  75  84 SW7       29.91S
KENANSVILLE    CLOUDY    81  75  83 W5        29.89S
KINSTON        CLOUDY    81  73  78 W8        29.89F
NEW BERN       CLOUDY    81  76  84 SW9       29.89F
RICHLANDS      CLOUDY    84  76  76 SW10      29.89F
ROCKY MOUNT    CLOUDY    80  76  87 SW7       29.86F
WASHINGTON     CLOUDY    83  75  76 SW10      29.88S
WHITEVILLE     CLOUDY    82  76  82 SW6       29.89F

$$

AMZ130-135-150-152-154-156-158-170-250-252-270-ANZ085-086-088-633-658-670-281500-
MARINE OBSERVATIONS

STATION/POSITION TIME  TEMP    WIND        PRES    WAVE   SWELL
                       AIR SEA DIR/SP/G            HT/PER HT/PER
                 (UTC) (F)     (DEG/KT/KT) (MB)    (FT/S) (FT/S)
CHESAPEAKE LIGHT NOT AVBL
64 E VA BEACH    NOT AVBL
DUCK             NOT AVBL
2 E DUCK         NOT AVBL
OREGON INLET     NOT AVBL
13E OREGON INLT  NOT AVBL
HATTERAS CG      NOT AVBL
DIAMOND BUOY     NOT AVBL
CAPE LOOKOUT     NOT AVBL
BEAUFORT LAB     NOT AVBL
30 SE NEW RVR IN NOT AVBL
30 SE NEW RVR IN NOT AVBL
27 SE WRIGHTSVLE NOT AVBL
5 SE WRIGHTSVLE  NOT AVBL
225 S CAPE HAT   NOT AVBL
41 SE CHARLESTON NOT AVBL

$$




USA.gov is the U.S. government's official web portal to all federal, state and local government web resources and services.